Location: Boiro
(42.6475°N, 8.8834°W)
Time: 15:23:40
(UTC+02:00)

Explorer 7 - Pass Details

Date: 03 July 2022
Orbit: 482 x 668 km, 50.3° (Epoch: 15 August)

Event Time Altitude Azimuth Distance (km) Brightness Sun altitude
Rises 04:46:28 0° 299° (WNW) 2,978 10.6 -18.2°
Reaches altitude 10° 04:48:56 10° 305° (NW) 2,045 9.8 -17.9°
Maximum altitude 04:53:29 47° 20° (NNE) 830 8.1 -17.5°
Drops below altitude 10° 04:57:48 10° 94° (E) 1,938 10.0 -17.1°
Sets 05:00:06 0° 101° (E) 2,805 10.7 -16.8°
